Starlink 1648

operational
NORAD ID: 46533 Int'l Des: 2020-070 Owner: SPXS Country: US Constellation: starlink
LEOCIRCULARSTARLINK_TYPE

About Starlink 1648

Description loading...

Live Position

Loading 3D Globe...

Upcoming Passes

Altitude History

Altitude vs Time

uPlot chart will show altitude changes over time

Two-Line Element Set

1 46533U 20070B 25352.00002315 .01716227 00000-0 28585-1 0 9993
2 46533 53.0528 169.1944 0001441 76.9774 188.3107 15.48686219 5812
Epoch: Dec 18, 2025 • Age: 11 hours

Current Status

Altitude 435.6 km
Velocity 7.65 km/s
Sub-Earth Point -52.92°S, 165.16°W
Launch Date Oct 6, 2020
Age 5.1 years
Type internet

Technical Details

Classification Payload
Mass 260.00 kg
Dry Mass 248.00 kg
Total Mass 260.00 kg
Length 0.20 m
Diameter 2.80 m
Span 9.00 m
Shape Box + pan
Manufacturer SPXS
Bus Type Starlink
Phase Status In Orbit
Owner/State SPXS/US

Large Constellations

Loading constellations...